Regional Weather Roundup
Issued by NWS Charleston, SC

Current Version | Previous Version | Text Only | Print | Product List | Glossary Off
Versions: 1 2 3 4 5 6 7 8 9 10 11 12 13 14 15 16 17 18 19 20 21 22 23 24 25 26 27 28 29 30 31 32 33 34 35 36 37 38 39 40 41 42 43 44 45 46 47 48 49 50

000
ASUS42 KCHS 282225
RWRCHS

REGIONAL WEATHER ROUNDUP
NATIONAL WEATHER SERVICE CHARLESTON SC
500 PM EST FRI NOV 28 2014

NOTE: "FAIR" INDICATES FEW OR NO CLOUDS BELOW 12,000 FEET WITH NO
SIGNIFICANT WEATHER AND/OR OBSTRUCTIONS TO VISIBILITY.

NOT ALL STATIONS ARE QUALITY CONTROLLED BY THE NATIONAL
WEATHER SERVICE. USE DATA WITH CAUTION...ESPECIALLY
DEWPOINT OBSERVATIONS.

SCZ027-030-031-034>040-042>050-282300-
...SOUTHEAST SOUTH CAROLINA...

CITY           SKY/WX    TMP DP  RH WIND       PRES   REMARKS
N CHARLESTON   CLEAR     46  25  43 N5        30.32S
WATERFRONT PRK   N/A     46 N/A N/A N9          N/A
MOUNT PLEASANT FAIR      45  32  61 CALM      30.32S
JOHNS ISLAND   CLEAR     46  32  57 CALM      30.33R
PINOPOLIS        N/A     50  25  37 NW3       30.23F
MONCKS CORNER  FAIR      45  32  61 CALM      30.32S
SUMMERVILLE    FAIR      43  30  61 CALM      30.34R
BEAUFORT MCAS  CLEAR     49  28  44 W3        30.33R
BEAUFORT ARPT  FAIR      43  36  75 CALM      30.32S
HILTON HEAD IS CLEAR     45  34  65 CALM      30.33S
WALTERBORO     CLEAR     46  27  46 CALM      30.33S
ALLENDALE      FAIR      45  30  57 CALM      30.32S

...SOUTHERN MIDLANDS AND PEE DEE...

CITY           SKY/WX    TMP DP  RH WIND       PRES   REMARKS
GEORGETOWN     NOT AVBL
KINGSTREE      NOT AVBL
ORANGEBURG     CLEAR     47  21  35 NW3       30.31S
BARNWELL       FAIR      48  30  49 CALM      30.33S
AIKEN          FAIR      43  28  56 CALM      30.33F
MANNING        NOT AVBL
COLUMBIA       CLEAR     46  21  37 W3        30.31S
SUMTER         CLEAR     46  22  38 NW3       30.30S
FLORENCE       CLEAR     45  20  36 N5        30.31S
MYRTLE BEACH   CLEAR     46  21  36 NW6       30.32F
N MYRTLE BEACH CLEAR     45  23  42 CALM      30.31F

$$

GAZ063-065-086>088-099>101-113>116-118-119-134>141-150-282300-
...SOUTHEAST GEORGIA...

CITY           SKY/WX    TMP DP  RH WIND       PRES   REMARKS
SAVANNAH ARPT  CLEAR     51  25  36 NW3       30.34R
HUNTER AAF     CLEAR     49  29  45 S2        30.31R
FORT STEWART   CLEAR     51  29  42 CALM      30.32R
STATESBORO     NOT AVBL
SYLVANIA       CLEAR     47  36  63 CALM      30.34R
CLAXTON        NOT AVBL

...CSRA...CENTRAL AND FAR SOUTHEAST GEORGIA...

CITY           SKY/WX    TMP DP  RH WIND       PRES   REMARKS
THOMSON        CLEAR     47  34  60 CALM      30.34F
AUGUSTA-BUSH   CLEAR     49  20  31 CALM      30.32S
AUGUSTA-DANIEL CLEAR     49  21  33 VRB3      30.32S
SWAINSBORO     FAIR      50  34  53 CALM      30.33R
VIDALIA        CLEAR     48  32  53 CALM      30.33R
HAZLEHURST     FAIR      51  31  47 CALM      30.31S
ALMA           CLEAR     51  28  41 CALM      30.32S
WAYCROSS       CLEAR     51  35  53 N3        30.32S
JESUP          FAIR      50  37  62 CALM      30.33R
BAXLEY         FAIR      50  32  50 CALM      30.32S
BRUNSWICK      CLEAR     46  34  61 NE5       30.34R
SAINT SIMONS   CLEAR     47  32  56 E6        30.33R

$$

SCZ027-028-034-036>038-045-046-048>050-GAZ119-141-282300-
...LAKE AND SUPPLEMENTAL COASTAL OBSERVATIONS...

STATION/POSITION TIME  TEMP    WIND        PRES    WAVE   SWELL
                       AIR SEA DIR/SP/G            HT/PER HT/PER/DIR
                 (UTC) (F)     (DEG/KT/KT) (MB)    (FT/S) (FT/S/D)
UPR LAKE MARION  NOT AVBL
WINYAH BAY       2200   46     350/  3     1026.0S
LAKE MURRAY      2100   49     180/  4/  5 1025.7F
ACE BASIN NERRS  2200   50        CALM     1026.0S
FORT PULASKI     2200   47      40/  2/  3 1027.3R
SAPELO ISLAND    2200   47      80/  3     1027.0S

$$

ANZ835-935-AMZ111-154-330-350-352-354-370-450-454-472-282300-
...C-MAN AND BUOY OBSERVATIONS...

STATION/POSITION TIME  TEMP    WIND        PRES    WAVE   SWELL
                       AIR SEA DIR/SP/G            HT/PER HT/PER/DIR
                 (UTC) (F)     (DEG/KT/KT) (MB)    (FT/S) (FT/S/D)
BUOY 41004       2200   48 72  350/ 10/ 16 1026.6R   5/ 7   5/ 7
BUOY 41008       2200   48 63   20/  8/ 12 1027.0R   4/ 6   3/ 60/ 6
FOLLY BEACH CMAN 2200   46     360/  5/  7 1027.2S
CAPERS NEARSHORE 2100   51      CALM  /  4   N/A
FRIPP NEARSHORE  NOT AVBL


STATION/POSITION TIME  TEMP    WIND        PRES    WAVE   SWELL
                       AIR SEA DIR/SP/G            HT/PER HT/PER/DIR
                 (UTC) (F)     (DEG/KT/KT) (MB)    (FT/S) (FT/S/D)
5E ST. MARYS GA  2100      61                N/A     4/ 6   2/120/14
FRYING PAN BUOY  2200   45 67  340/ 12/ 16 1027.0R   4/ 9   3/110/ 9
BUOY 41025       2200   44     330/ 16/ 21 1025.6R   4/ 8   3/ 20/ 8
CAPE LOOKOUT NC  2200   43     340/  7/ 10 1026.2R
BUOY 41002       2109   58 72  340/ 16/ 21 1022.4R   8/ 8
BUOY 41010       2200   65 77  360/ 14/ 19 1022.5R   6/ 8   5/ 8
ST AUGUSTINE FL  2200   52      10/ 12/ 15 1026.2F


$$


USA.gov is the U.S. government's official web portal to all federal, state and local government web resources and services.